EW5295 Weather Reports


time (UTC)temp
F
wind
direction
speed
knots
gust
knots
rain 1hr
in
rain 24hr
in
rain mn
in
humidity
%
barometer
mb
20260906003049 68 156 0.0 0.0 0.00 0.04 0.00 58 1014.8
20260906001600 69 158 0.0 0.9 0.00 0.11 0.00 55 1014.8
20260906000047 69 290 0.0 0.9 0.00 0.11 0.00 58 1014.7
20260905234545 68 300 0.0 0.9 0.00 0.11 0.00 59 1014.7
20260905233044 67 127 0.0 0.9 0.00 0.11 0.00 57 1014.8
20260905231531 67 127 0.0 0.9 0.00 0.14 0.00 59 1014.9
20260905230034 67 172 0.0 1.7 0.00 0.14 0.00 61 1015.0
20260905224530 68 151 0.0 0.9 0.00 0.14 0.00 63 1015.1
20260905223041 69 156 0.0 0.9 0.00 0.14 0.00 58 1015.2
20260905221524 69 160 0.0 0.0 0.00 0.14 0.00 61 1015.3
20260905220019 67 145 0.0 0.9 0.00 0.14 0.00 62 1015.4
20260905214516 67 302 0.0 0.9 0.00 0.14 0.00 64 1015.5
20260905213014 66 155 0.0 0.0 0.00 0.14 0.00 68 1015.6
20260905211609 66 148 0.0 0.0 0.00 0.14 0.14 67 1015.7
20260905210117 66 148 0.0 0.0 0.00 0.14 0.14 67 1015.8
20260905204600 66 151 0.0 1.7 0.00 0.14 0.14 65 1015.9
20260905203055 65 121 0.0 0.0 0.00 0.14 0.14 71 1016.0
20260905201553 64 122 0.0 0.9 0.00 0.14 0.14 72 1016.0
20260905200114 64 120 0.0 0.9 0.00 0.14 0.14 72 1016.0
20260905194553 63 95 0.0 0.9 0.00 0.14 0.14 74 1016.1
20260905193052 63 158 0.0 2.6 0.00 0.14 0.14 72 1016.1
20260905191541 62 137 0.0 0.9 0.00 0.14 0.14 74 1016.2
20260905190040 62 131 0.0 0.0 0.00 0.14 0.14 77 1016.3
20260905184548 61 281 0.0 0.0 0.00 0.14 0.14 80 1016.5
20260905183043 61 281 0.0 0.0 0.00 0.14 0.14 79 1016.6
20260905181637 61 283 0.0 0.9 0.00 0.14 0.14 83 1016.6
20260905180041 60 289 0.0 0.0 0.00 0.14 0.14 83 1016.7
20260905174537 60 261 0.0 0.9 0.00 0.14 0.14 85 1016.7
20260905173043 59 161 0.0 0.0 0.00 0.14 0.14 91 1016.7
20260905171517 58 153 0.0 0.0 0.00 0.15 0.14 92 1016.7
20260905170018 57 158 0.0 0.0 0.00 0.15 0.14 94 1016.8
20260905164505 56 158 0.0 0.0 0.00 0.15 0.14 95 1016.8
20260905163004 55 158 0.0 0.0 0.00 0.15 0.14 96 1016.8
20260905161504 55 136 0.0 0.9 0.00 0.15 0.14 96 1016.8
20260905160004 55 133 0.0 0.0 0.00 0.15 0.14 97 1016.7
20260905154501 55 269 0.0 0.0 0.00 0.15 0.14 97 1016.7
20260905153001 55 269 0.0 0.0 0.00 0.15 0.14 97 1016.7
20260905151628 54 270 0.0 0.0 0.00 0.15 0.14 97 1016.6
20260905150057 0 0.0 0.0 0.00 0.15 0.14 1016.6
20260905144545 0 0.0 0.0 0.00 0.15 0.14 1016.6
20260905143037 0 0.0 0.0 0.00 0.15 0.14 1016.6
20260905141532 0 0.0 0.0 0.00 0.15 0.14 1016.5
20260905140027 0 0.0 0.0 0.00 0.15 0.14 1016.4
20260905134532 0 0.0 0.0 0.00 0.15 0.14 1016.4
20260905133019 0 0.0 0.0 0.00 0.15 0.14 1016.3
20260905131515 0 0.0 0.0 0.00 0.15 0.14 1016.4
20260905130011 0 0.0 0.0 0.00 0.15 0.14 1016.2
20260905124556 0 0.0 0.0 0.00 0.15 0.14 1016.1
20260905123107 0 0.0 0.0 0.00 0.15 0.14 1016.0
20260905121549 52 285 0.0 0.0 0.00 0.16 0.14 96 1015.9
20260905120048 52 285 0.0 0.0 0.00 0.16 0.14 96 1015.9
20260905114549 52 285 0.0 0.0 0.00 0.16 0.14 96 1015.9
20260905113046 52 285 0.0 0.0 0.00 0.16 0.14 96 1015.9
20260905111554 52 285 0.0 0.0 0.00 0.19 0.14 96 1015.8
20260905110046 53 285 0.0 0.0 0.00 0.19 0.14 96 1015.8
20260905104533 53 285 0.0 0.0 0.00 0.19 0.14 96 1015.8
20260905103042 53 285 0.0 0.0 0.00 0.19 0.14 96 1016.0
20260905101533 53 285 0.0 0.0 0.01 0.19 0.14 96 1016.0
20260905100045 54 285 0.0 0.0 0.01 0.19 0.14 96 1016.0
20260905094532 54 285 0.0 0.0 0.01 0.19 0.14 96 1016.0
20260905093031 54 285 0.0 0.0 0.01 0.19 0.14 96 1016.0
20260905091536 54 285 0.0 0.0 0.00 0.18 0.13 96 1015.9
20260905090028 53 285 0.0 0.0 0.00 0.18 0.13 96 1015.9
20260905084516 53 287 0.0 0.0 0.00 0.18 0.13 96 1015.8
20260905083017 53 287 0.0 0.0 0.00 0.18 0.13 96 1015.6
20260905081518 53 287 0.0 0.0 0.00 0.18 0.13 96 1015.6
20260905080024 53 287 0.0 0.0 0.00 0.18 0.13 96 1015.5
20260905074512 53 287 0.0 0.0 0.00 0.18 0.13 96 1015.4
20260905073020 53 287 0.0 0.0 0.00 0.18 0.13 96 1015.4
20260905071509 53 287 0.0 0.0 0.00 0.18 0.13 96 1015.4
20260905070009 52 287 0.0 0.0 0.00 0.18 0.13 96 1015.4
20260905064507 52 287 0.0 0.0 0.00 0.18 0.13 96 1015.3
20260905063049 52 287 0.0 0.0 0.00 0.18 0.13 96 1015.2
20260905061554 52 287 0.0 0.0 0.00 0.18 0.13 95 1014.9
20260905060045 52 287 0.0 0.0 0.00 0.18 0.13 95 1014.9
20260905054536 52 287 0.0 0.0 0.00 0.18 0.13 95 1014.9
20260905053029 53 287 0.0 0.0 0.00 0.18 0.13 95 1015.0
20260905051528 53 287 0.0 0.0 0.00 0.18 0.13 95 1014.9
20260905050028 54 287 0.0 0.0 0.00 0.18 0.13 95 1015.0
20260905044535 54 287 0.0 0.0 0.00 0.18 0.13 95 1014.9
20260905043027 54 287 0.0 0.0 0.00 0.18 0.13 95 1015.0
20260905041523 53 287 0.0 0.0 0.00 0.18 0.13 94 1014.9
20260905040011 54 287 0.0 0.0 0.00 0.18 0.13 94 1014.7
20260905034508 54 287 0.0 0.0 0.00 0.18 0.13 94 1014.5
20260905033004 55 287 0.0 0.0 0.00 0.18 0.13 94 1014.4
20260905031502 55 288 0.0 0.0 0.00 0.18 0.13 94 1014.2
20260905024559 56 288 0.0 0.0 0.01 0.18 0.13 93 1014.0
20260905023057 56 288 0.0 0.0 0.01 0.18 0.13 92 1014.1
20260905021556 56 288 0.0 0.0 0.01 0.18 0.13 92 1014.0
20260905020050 57 288 0.0 0.0 0.03 0.18 0.13 91 1013.8
20260905014539 57 288 0.0 0.9 0.02 0.17 0.12 89 1013.7
20260905013037 58 288 0.0 0.9 0.02 0.17 0.12 89 1013.6
20260905011554 58 314 0.0 0.0 0.03 0.17 0.12 89 1013.5
20260905010040 59 161 0.0 0.0 0.03 0.15 0.10 89 1013.5
20260905004536 58 161 0.0 0.0 0.05 0.15 0.10 89 1013.3